Wind_Speed
4 6 6 6 7 7 7 7 9 2 5 6 3 3 1 3 6 8 8 8 11 15 17 16 19 19 20 18 11 7 7 9 12 12 11 10 8 7 6 6 6 4 6
6 7 9 7 7 5 3 3 4 5 7 5 5 6 6 6 3 4 4 7 9 12 14 15 17 18 20 21 19 13 11 11 12 11 11 10 9 9 9 7 5 6 6
7 6 8 9 7 7 6 4 3 5 2 7 9 10 13 10 7 3 1 4 5 7 10 11 13 14 18 20 21 19 15 14 16 17 17 15 14 12 11 11 8 6 5
9 9 9 11 12 10 8 7 8 10 8 10 11 13 6 11 13 4 3 5 2 3 6 7 10 11 16 17 17 17 14 13 14 15 14 15 17 18 17 16 15 14 11
12 14 11 12 12 13 10 9 11 9 10 13 14 20 3 12 22 7 10 8 3 5 4 3 6 7 10 13 15 15 14 14 15 17 16 13 13 15 16 16 15 14 15
13 13 12 13 9 9 11 10 12 11 14 16 15 18 17 8 19 15 17 10 11 11 6 2 3 6 5 7 9 11 12 13 13 15 18 19 18 17 16 16 17 16 14
14 16 13 11 18 12 11 13 16 13 12 16 17 15 16 13 19 6 14 7 7 10 10 3 3 5 0 5 6 9 7 8 9 12 15 16 15 16 15 15 16 16 16
13 15 15 11 13 13 14 14 9 18 15 12 17 19 15 9 15 12 12 11 7 13 9 7 4 3 1 2 0 5 5 5 7 8 9 10 11 14 15 15 14 14 16
12 15 14 13 11 10 14 15 17 11 10 15 18 14 16 13 13 16 8 6 7 12 8 11 3 5 2 6 6 1 1 2 2 4 7 8 10 13 14 15 15 16 15
12 13 14 13 10 10 13 14 16 16 20 15 14 15 15 14 14 11 10 3 12 15 13 10 10 4 3 6 7 7 4 5 6 6 6 8 10 12 12 13 12 11 11
15 14 13 14 13 9 12 14 16 19 14 18 17 15 16 15 15 9 11 11 11 12 16 13 14 11 11 11 8 5 4 5 8 10 9 10 10 10 10 12 13 11 10
18 17 16 15 16 12 12 11 14 15 22 22 18 16 19 16 16 14 14 13 12 22 23 16 11 11 14 14 11 10 7 6 7 7 9 10 11 9 8 10 12 13 12
20 19 18 19 18 13 16 15 15 11 20 26 21 21 20 19 19 18 10 15 14 11 10 8 13 15 14 14 13 11 9 6 6 7 6 7 10 11 10 9 10 10 13
25 22 21 21 22 21 21 20 17 13 16 22 26 23 27 24 21 21 15 15 16 19 22 14 12 13 17 17 14 12 13 7 9 9 12 11 10 12 11 10 12 14 14
32 27 24 23 25 31 27 29 18 18 20 21 25 24 26 26 22 19 20 20 24 28 16 17 14 16 16 15 19 15 18 14 19 18 15 14 12 12 14 14 14 16 18
39 34 28 28 26 29 32 24 16 16 17 26 25 21 22 24 21 23 22 26 28 19 14 14 16 16 14 18 20 17 12 17 20 18 19 17 15 13 15 17 20 19 21
43 42 34 35 36 35 33 28 30 21 21 25 24 22 23 26 21 23 25 26 29 12 14 17 17 18 19 21 21 19 17 20 20 18 22 19 15 14 18 21 23 24 23
45 51 40 38 36 36 34 33 25 24 25 28 24 25 25 24 27 26 22 29 16 19 20 22 22 22 21 22 18 18 21 21 20 14 15 18 18 20 22 26 26 27 26
49 56 43 38 38 35 35 31 32 31 29 24 24 27 27 25 26 30 32 28 26 29 25 25 27 27 28 27 24 23 24 26 22 15 17 21 24 29 27 30 32 31 29
33 55 50 39 37 35 35 34 34 30 33 25 26 29 28 30 31 32 36 35 34 33 32 32 32 29 29 28 25 28 29 28 28 26 23 23 25 28 31 33 35 36 33
26 32 40 39 41 37 34 41 35 32 20 26 31 32 32 31 32 36 39 38 37 40 37 39 38 36 35 33 32 29 30 30 29 30 29 29 29 32 35 34 35 37 38
20 32 28 35 35 36 37 35 33 31 36 37 35 39 40 37 35 38 38 40 45 45 44 42 41 41 37 39 41 37 36 34 30 34 31 32 32 31 35 35 39 40 42
28 29 25 23 21 21 20 26 29 32 37 40 40 37 38 39 39 39 40 38 38 45 51 44 46 45 46 44 41 41 41 40 37 37 39 36 41 40 42 44 41 42 41
27 19 21 23 19 23 24 21 29 32 34 38 42 38 36 39 37 30 28 39 45 43 44 48 47 48 48 44 42 42 43 42 40 40 42 41 45 45 46 48 41 40 40
23 26 24 23 23 24 26 26 25 26 28 32 35 34 35 32 29 25 27 33 42 45 45 43 50 54 52 53 50 46 40 43 43 42 43 44 46 44 43 43 40 40 40
29 29 25 20 21 23 22 25 25 25 27 30 32 32 34 31 29 32 33 32 27 28 37 37 46 40 38 40 49 48 48 48 49 47 43 49 47 45 43 41 42 41 41
Wind_Direction
307 320 341 345 27 30 12 358 16 339 312 112 89 106 208 169 140 92 105 57 44 50 50 51 41 38 34 25 23 39 67 74 71 67 63 56 48 39 31 30 29 41 21
327 316 309 325 341 14 20 351 1 343 341 338 324 306 228 214 205 144 109 64 43 55 45 46 44 37 36 39 58 81 93 83 69 58 55 52 47 45 43 40 30 36 27
330 332 318 315 330 332 344 327 291 280 28 345 300 280 294 263 261 124 181 74 48 32 50 34 39 40 45 51 64 69 71 60 61 61 58 56 51 46 39 36 30 41 29
313 312 305 314 320 324 344 324 304 305 323 326 281 266 260 306 286 212 232 183 85 342 28 18 27 36 53 55 58 61 56 59 47 40 41 45 48 45 40 34 31 36 35
306 308 312 313 319 332 337 317 308 286 302 307 285 291 234 307 298 275 253 184 196 262 300 348 347 10 65 63 58 53 45 39 41 39 40 39 36 38 39 37 35 35 31
293 297 305 300 314 303 309 302 302 286 296 294 295 312 308 301 294 277 260 274 272 255 255 260 305 315 72 70 63 54 58 47 46 48 49 48 45 42 35 30 29 28 26
284 291 294 289 306 298 298 293 276 288 299 294 290 285 292 297 304 334 239 242 250 266 273 292 291 278 116 79 77 77 61 61 51 51 46 40 41 40 38 34 33 31 28
285 287 289 296 279 284 292 285 269 275 269 275 277 276 287 293 315 318 302 316 218 256 258 257 255 299 23 268 143 63 42 47 64 54 47 46 45 41 34 29 28 29 31
285 289 291 292 290 290 287 291 278 257 286 278 276 284 294 317 304 299 337 359 296 229 231 243 203 245 230 245 244 220 297 319 12 26 47 46 39 42 36 33 29 32 30
273 282 293 297 296 294 282 288 288 287 300 290 282 286 288 289 272 286 277 266 175 191 192 218 203 222 210 244 226 241 250 296 310 346 23 39 39 34 26 19 21 22 14
272 271 275 279 281 280 289 304 306 298 286 293 286 286 279 270 278 261 273 255 233 210 204 216 198 196 217 225 222 225 251 282 309 335 349 12 13 15 13 14 12 9 15
264 269 272 277 285 295 298 295 286 307 288 292 286 286 277 278 274 260 264 273 252 238 196 221 226 236 230 224 218 205 223 261 294 319 343 351 343 351 12 15 4 356 357
255 259 265 270 277 281 276 275 271 281 292 289 292 290 282 282 277 242 230 255 262 258 267 255 248 244 239 240 250 258 235 239 278 301 322 333 337 338 352 358 349 343 340
254 255 263 268 267 272 265 270 266 271 264 275 287 289 293 291 290 293 295 274 256 248 266 278 283 309 252 242 249 248 252 273 305 305 309 315 322 323 330 332 329 327 323
252 248 252 259 264 264 257 269 255 275 272 266 266 279 285 290 284 278 270 266 269 251 241 249 269 292 325 290 327 306 240 284 297 290 290 294 306 317 319 321 324 322 316
261 255 258 258 251 240 255 258 265 263 261 264 261 265 278 281 277 274 269 274 280 221 221 247 266 284 297 304 308 301 294 294 290 277 265 272 283 292 302 312 315 316 314
263 260 249 251 255 255 257 254 257 257 261 262 266 265 264 268 265 265 264 269 276 223 242 255 263 275 288 300 306 305 313 315 316 275 252 262 270 280 293 303 309 315 313
258 259 253 252 254 259 259 264 271 261 255 257 262 264 266 267 271 262 256 268 262 271 270 271 273 278 285 289 286 294 300 302 310 295 261 254 256 274 294 301 307 311 315
258 247 255 248 251 253 257 259 263 266 259 251 259 266 268 265 261 263 263 273 276 274 274 270 279 287 296 296 293 286 285 287 292 298 288 274 281 287 295 299 304 308 311
271 236 243 242 246 247 252 253 256 265 256 252 256 268 277 266 263 264 263 263 263 269 269 269 270 275 277 279 274 281 286 288 290 289 286 284 286 290 295 299 301 303 306
238 237 238 234 237 237 248 247 250 251 255 261 269 270 274 276 277 271 265 266 265 264 265 269 273 274 278 280 275 272 275 278 282 284 288 290 291 292 292 294 296 299 301
292 336 338 253 253 236 241 259 250 243 257 258 264 269 271 278 274 271 270 268 264 264 264 264 270 273 282 284 285 285 282 281 285 281 278 282 283 286 291 295 295 296 298
330 331 328 317 259 265 284 249 253 264 267 263 261 266 271 274 277 275 265 268 270 270 268 266 272 275 277 278 276 280 283 284 285 286 286 295 292 293 290 290 290 292 290
319 306 308 304 304 282 283 270 271 271 268 261 260 268 268 273 282 276 276 272 269 273 277 269 268 265 272 273 271 273 277 279 286 289 288 289 289 290 288 286 287 285 285
313 301 284 272 270 269 277 273 271 274 267 262 262 265 262 270 275 277 274 284 270 273 275 274 264 273 265 268 265 264 278 279 284 287 289 286 284 285 285 286 288 287 286
297 294 292 276 280 273 272 276 270 269 270 270 268 267 266 265 270 276 279 280 275 259 268 265 269 268 273 271 269 273 278 282 286 289 287 286 284 283 281 283 283 282 283
Height
5950 5948 5948 5949 5948 5948 5947 5946 5945 5946 5945 5946 5943 5942 5944 5942 5939 5939 5938 5939 5938 5936 5934 5934 5936 5934 5933 5931 5929 5929 5930 5928 5927 5927 5926 5925 5925 5924 5923 5922 5921 5921 5921
5948 5948 5948 5948 5948 5950 5949 5947 5946 5943 5941 5944 5943 5940 5939 5940 5937 5938 5936 5935 5937 5935 5935 5935 5935 5935 5933 5931 5929 5929 5930 5929 5929 5928 5927 5926 5925 5924 5922 5921 5920 5920 5920
5949 5948 5946 5946 5947 5946 5945 5945 5945 5942 5936 5938 5940 5942 5939 5936 5933 5936 5934 5933 5938 5938 5936 5936 5936 5935 5934 5933 5931 5931 5931 5931 5930 5928 5927 5926 5925 5924 5923 5921 5920 5920 5919
5948 5947 5945 5945 5946 5945 5945 5943 5941 5940 5938 5939 5937 5932 5931 5933 5935 5928 5928 5930 5936 5937 5936 5936 5935 5936 5934 5933 5933 5932 5932 5930 5930 5929 5927 5926 5925 5924 5923 5922 5921 5920 5919
5946 5946 5945 5944 5945 5945 5944 5944 5943 5940 5939 5936 5934 5925 5926 5931 5932 5931 5928 5927 5930 5935 5934 5933 5935 5936 5933 5932 5932 5932 5932 5931 5929 5928 5926 5925 5925 5925 5924 5923 5922 5920 5918
5943 5943 5943 5942 5942 5942 5941 5941 5941 5940 5939 5934 5939 5927 5935 5930 5933 5931 5933 5932 5934 5933 5932 5930 5933 5936 5934 5933 5931 5931 5932 5932 5930 5929 5928 5926 5926 5925 5925 5923 5922 5920 5919
5940 5940 5942 5940 5941 5938 5940 5938 5937 5938 5936 5937 5934 5936 5936 5934 5931 5930 5933 5931 5933 5932 5931 5928 5932 5935 5934 5932 5932 5930 5930 5929 5929 5929 5929 5928 5927 5925 5924 5923 5922 5920 5919
5939 5937 5938 5938 5939 5935 5935 5935 5935 5932 5932 5932 5933 5930 5930 5931 5927 5929 5925 5927 5925 5930 5930 5926 5929 5932 5930 5930 5929 5929 5929 5928 5927 5926 5927 5926 5925 5925 5923 5922 5921 5919 5919
5935 5934 5935 5935 5935 5934 5933 5932 5932 5932 5930 5927 5931 5929 5926 5923 5925 5924 5925 5923 5925 5928 5929 5928 5926 5928 5925 5926 5926 5926 5926 5926 5925 5924 5923 5924 5924 5923 5923 5922 5921 5920 5919
5931 5931 5930 5931 5932 5932 5930 5930 5932 5930 5931 5929 5929 5929 5926 5925 5926 5922 5924 5925 5924 5924 5924 5924 5923 5922 5921 5925 5923 5923 5923 5924 5924 5924 5923 5922 5921 5921 5920 5920 5919 5918 5917
5926 5925 5926 5926 5926 5928 5927 5926 5925 5925 5925 5927 5928 5925 5924 5921 5923 5921 5919 5918 5922 5923 5921 5918 5912 5911 5916 5919 5919 5920 5920 5920 5921 5923 5922 5920 5919 5918 5917 5917 5917 5916 5915
5921 5921 5920 5920 5919 5922 5922 5921 5918 5917 5917 5918 5921 5918 5915 5918 5918 5917 5917 5916 5920 5911 5908 5911 5911 5912 5914 5915 5915 5914 5915 5917 5918 5919 5919 5918 5917 5915 5914 5914 5914 5913 5913
5915 5916 5916 5915 5913 5915 5914 5913 5911 5911 5911 5913 5911 5910 5908 5911 5913 5905 5910 5913 5913 5906 5899 5905 5907 5910 5912 5912 5913 5914 5912 5910 5914 5916 5915 5914 5914 5913 5912 5911 5911 5910 5910
5907 5909 5909 5911 5909 5909 5907 5904 5906 5907 5906 5905 5902 5900 5898 5901 5907 5903 5906 5907 5907 5909 5901 5907 5908 5908 5907 5903 5907 5910 5911 5910 5909 5910 5912 5911 5910 5910 5909 5907 5907 5907 5906
5898 5902 5905 5905 5904 5902 5899 5898 5901 5900 5899 5901 5898 5895 5894 5894 5902 5904 5905 5903 5899 5898 5901 5903 5903 5901 5900 5900 5903 5905 5906 5905 5905 5906 5906 5906 5905 5905 5905 5904 5903 5901 5901
5890 5896 5900 5898 5895 5893 5896 5896 5894 5890 5892 5893 5892 5891 5892 5890 5894 5895 5897 5896 5892 5890 5890 5893 5898 5897 5898 5896 5897 5898 5896 5895 5897 5897 5898 5898 5898 5897 5899 5898 5899 5896 5896
5879 5880 5887 5889 5888 5887 5887 5890 5891 5888 5887 5887 5886 5885 5885 5883 5887 5888 5887 5890 5889 5881 5886 5888 5889 5892 5894 5891 5888 5889 5889 5890 5889 5888 5891 5891 5891 5890 5891 5891 5891 5890 5891
5871 5863 5874 5878 5880 5880 5878 5877 5876 5878 5880 5879 5879 5878 5879 5878 5877 5879 5879 5882 5880 5882 5884 5882 5883 5885 5886 5888 5887 5887 5887 5887 5886 5885 5884 5883 5883 5885 5885 5884 5883 5882 5883
5859 5853 5858 5864 5865 5868 5869 5868 5868 5871 5871 5870 5870 5870 5869 5871 5871 5870 5871 5871 5873 5874 5876 5878 5876 5873 5873 5875 5878 5881 5883 5883 5881 5880 5879 5879 5877 5876 5877 5877 5876 5875 5874
5828 5815 5842 5851 5853 5856 5859 5861 5861 5863 5862 5861 5863 5864 5865 5863 5864 5864 5866 5867 5866 5865 5867 5870 5872 5873 5874 5873 5873 5873 5873 5873 5872 5873 5873 5872 5872 5870 5870 5867 5867 5866 5864
5824 5824 5833 5836 5841 5844 5847 5849 5851 5851 5849 5853 5855 5855 5855 5856 5857 5856 5856 5858 5858 5857 5857 5859 5860 5861 5862 5863 5864 5865 5866 5866 5865 5863 5862 5862 5863 5863 5861 5860 5857 5857 5857
5830 5831 5830 5833 5833 5836 5839 5843 5837 5842 5844 5844 5846 5846 5845 5847 5847 5847 5847 5848 5848 5848 5848 5847 5849 5851 5850 5850 5848 5849 5852 5853 5855 5851 5855 5854 5856 5854 5854 5850 5848 5848 5848
5832 5832 5831 5829 5825 5830 5833 5831 5835 5836 5834 5834 5835 5836 5835 5836 5834 5834 5834 5836 5835 5836 5837 5838 5838 5839 5841 5839 5840 5840 5838 5840 5841 5841 5840 5843 5838 5841 5840 5840 5838 5837 5838
5831 5826 5824 5822 5822 5823 5826 5825 5825 5824 5825 5824 5825 5826 5826 5823 5824 5822 5823 5823 5823 5824 5823 5825 5827 5827 5828 5828 5827 5828 5829 5829 5829 5829 5826 5830 5827 5826 5826 5827 5826 5827 5826
5823 5823 5822 5821 5820 5820 5818 5817 5816 5814 5814 5815 5816 5817 5816 5817 5815 5813 5812 5811 5809 5809 5810 5810 5812 5814 5814 5815 5815 5816 5816 5816 5818 5818 5815 5815 5815 5815 5814 5813 5811 5812 5813
5816 5817 5815 5814 5812 5810 5810 5809 5810 5810 5810 5809 5807 5808 5808 5806 5805 5804 5802 5801 5799 5798 5799 5801 5802 5802 5803 5803 5803 5801 5802 5802 5800 5803 5800 5801 5801 5801 5803 5800 5798 5799 5798